Temperature
17 17 18 18 17 17 17 17 17 17 17 17 17 16 16 17 17 17 18 18 18 18 17 17 17 17 18 18 18 18 18 18 18 18 18 18 18 18 18 17 17 17 17
17 17 17 17 17 17 17 17 17 17 17 16 16 16 16 16 17 17 17 17 17 17 17 17 17 17 17 18 18 18 18 18 18 18 18 18 18 18 18 18 17 17 17
17 17 17 17 17 17 17 17 16 16 16 16 16 16 16 16 16 17 17 17 17 17 17 17 17 17 17 17 18 18 18 18 18 18 18 18 18 18 18 18 18 17 17
17 16 16 16 16 16 16 16 16 16 16 16 16 16 16 16 16 16 16 17 17 17 17 17 17 17 17 17 17 17 18 17 18 17 17 18 18 18 18 18 18 17 17
16 16 16 16 16 16 16 16 16 16 16 16 16 15 16 16 16 16 16 16 17 17 17 17 17 17 17 17 17 17 17 17 17 17 17 17 17 17 17 18 17 17 17
16 16 16 16 16 16 16 15 15 15 15 15 15 15 15 16 16 16 16 17 17 17 17 17 17 17 17 17 17 17 17 17 17 17 17 17 17 17 17 17 17 17 17
15 15 15 15 15 15 15 15 15 15 15 15 15 15 16 16 16 16 17 17 17 17 17 17 17 17 17 17 17 17 17 17 17 17 17 17 17 17 17 17 17 17 16
14 14 14 15 15 15 15 15 15 15 15 15 15 15 15 16 16 17 17 17 17 17 17 17 17 16 17 17 17 17 17 17 17 17 17 17 17 17 17 17 17 17 16
14 14 14 14 14 14 14 14 15 15 15 15 15 15 15 16 17 17 17 17 18 17 17 17 17 17 17 17 17 17 17 17 17 17 17 17 17 17 17 17 17 17 16
13 13 14 14 14 14 14 14 14 14 14 15 15 15 15 15 15 16 17 17 17 17 17 17 17 17 17 17 17 17 17 17 17 17 17 17 16 16 17 17 17 17 16
12 13 13 13 13 14 14 14 14 14 14 14 15 15 15 15 15 15 16 17 17 17 17 17 17 17 17 17 17 17 17 17 17 17 17 17 17 16 16 16 17 17 17
12 12 12 12 13 13 13 13 13 13 14 14 14 14 14 14 15 15 16 16 17 17 17 17 17 17 17 17 17 17 17 17 17 17 17 16 16 16 17 16 17 17 16
11 11 11 12 12 12 12 12 12 13 13 13 13 14 14 14 14 15 15 15 16 17 17 17 17 17 17 17 17 17 17 17 17 17 16 16 16 16 16 17 16 16 16
10 10 10 11 11 11 11 12 12 12 12 12 13 13 13 14 14 14 14 15 15 16 17 17 17 17 17 17 17 17 17 17 17 16 16 16 16 16 16 16 16 16 16
9 9 10 10 10 11 11 11 11 11 12 12 12 12 12 13 13 14 14 14 14 15 16 17 17 17 17 17 17 17 17 17 16 16 16 16 16 16 16 16 16 16 16
9 9 9 9 10 10 10 10 10 11 11 11 11 11 12 12 13 13 13 13 14 14 15 16 17 17 17 16 16 16 16 16 16 16 16 16 16 16 16 16 16 16 16
8 8 8 9 9 9 9 9 10 10 10 10 11 11 11 11 12 12 13 13 13 13 14 15 16 16 16 16 16 16 16 16 16 16 16 16 16 16 16 16 16 16 16
8 8 8 8 8 8 8 9 9 9 9 9 10 10 10 11 11 11 12 12 13 13 13 14 15 16 16 16 16 16 16 16 16 16 16 16 16 16 16 16 16 16 16
8 8 8 8 8 8 8 8 8 8 9 9 9 9 10 10 10 11 11 11 12 12 13 13 14 15 15 15 15 15 15 15 15 15 16 16 16 16 16 16 16 16 16
8 8 8 8 8 8 7 7 8 8 8 8 8 9 9 9 10 10 11 11 11 12 12 13 13 14 14 15 15 15 15 14 15 15 15 15 16 16 16 16 16 16 16
8 8 7 7 7 7 7 7 7 7 7 7 8 8 8 9 9 10 10 10 11 11 11 12 12 13 14 14 14 14 14 14 14 14 14 14 14 14 15 15 15 15 15
7 7 7 7 7 7 7 7 6 6 6 7 7 7 8 8 8 9 9 10 10 10 11 11 12 12 13 14 14 14 14 13 13 12 13 12 12 12 12 13 14 14 14
7 7 7 7 7 7 7 7 7 6 6 6 7 7 7 7 8 8 9 9 10 10 10 11 11 12 13 13 14 13 14 14 14 13 12 11 11 12 12 12 12 13 13
7 7 7 7 7 7 7 7 7 6 6 6 6 6 6 7 7 7 8 9 9 10 10 11 11 11 12 12 13 14 14 13 13 12 12 11 11 11 11 11 11 12 12
7 7 7 7 7 7 7 7 7 6 6 6 6 6 6 6 7 7 7 8 9 9 10 10 10 11 11 12 12 12 12 12 12 11 11 11 11 11 11 11 11 11 11
7 7 8 8 7 7 7 7 6 6 6 6 6 6 6 6 6 7 7 8 8 9 10 10 10 10 11 11 12 12 13 13 12 11 11 11 11 11 10 10 10 11 11
Wind_Speed
5 3 3 5 5 6 6 5 5 6 6 7 8 9 8 10 13 13 13 17 18 23 28 28 28 28 28 28 27 26 26 25 24 23 23 22 21 20 20 19 19 18 18
4 4 4 3 4 5 6 6 6 7 6 6 8 8 8 10 12 13 14 15 18 21 27 29 29 28 28 28 28 27 27 26 26 25 25 24 23 22 21 20 20 19 19
4 3 3 3 4 6 6 5 5 5 6 7 8 8 7 9 9 10 14 15 15 20 27 30 29 29 29 28 28 27 27 27 27 27 26 25 25 24 23 22 21 21 20
1 2 2 4 4 5 4 4 4 4 5 6 6 7 8 7 9 11 12 14 15 17 22 29 30 30 29 29 28 28 28 28 28 28 27 26 26 26 25 24 23 22 22
0 1 2 3 3 3 3 4 4 4 5 6 6 7 7 7 8 9 10 13 16 17 17 21 28 29 30 30 29 28 28 28 28 28 28 27 27 26 26 26 25 24 24
1 0 1 3 2 3 4 4 5 5 4 5 6 7 6 7 7 9 11 10 12 17 18 18 19 23 29 30 29 28 28 28 28 29 28 27 27 26 26 26 26 26 26
4 2 2 3 2 3 5 6 5 5 5 3 3 4 6 8 9 9 9 9 10 12 14 16 16 16 17 25 28 28 28 28 28 28 28 28 27 26 26 26 26 27 27
8 5 4 4 3 3 4 4 4 3 4 4 4 3 4 4 5 8 8 9 10 9 10 13 14 15 15 14 19 27 28 27 27 28 28 28 27 26 26 26 26 26 27
9 7 6 5 4 3 3 4 3 5 5 4 5 4 3 4 4 3 5 7 8 8 9 8 11 13 15 15 15 21 27 27 27 27 27 27 27 27 26 26 26 26 26
8 8 7 6 5 3 3 3 1 2 3 4 3 4 5 4 3 4 4 3 6 7 8 8 9 10 14 14 15 18 23 25 26 26 25 25 26 27 26 26 26 26 26
6 7 7 7 5 3 3 3 2 1 1 2 3 3 3 3 4 3 4 4 3 4 6 7 7 8 11 13 13 16 20 23 24 25 24 24 24 25 26 26 26 26 26
6 7 7 7 6 4 4 4 3 2 2 2 3 3 3 3 3 3 5 4 4 4 4 6 7 8 8 11 15 18 20 21 22 23 23 22 23 24 25 25 25 25 25
4 6 6 6 6 6 6 5 4 5 3 3 4 3 3 4 3 3 3 4 4 4 3 4 6 6 7 10 13 19 19 20 20 20 20 20 21 22 23 23 23 24 24
4 5 5 6 6 6 7 6 5 5 5 5 5 5 4 4 3 3 3 2 3 3 3 4 3 5 5 8 12 16 13 17 17 16 16 17 18 19 20 21 22 22 22
5 5 5 6 6 6 6 6 5 6 6 6 6 6 5 5 4 3 3 3 3 3 4 4 2 3 4 5 10 10 9 13 14 13 13 13 13 15 16 18 19 20 20
5 6 7 7 7 7 6 6 6 6 6 6 5 7 6 5 5 4 4 4 4 4 4 4 4 3 4 6 8 9 10 13 12 11 10 9 11 12 13 14 15 17 18
6 7 7 7 7 8 7 6 6 7 7 7 6 7 8 7 6 5 4 4 4 4 5 4 2 2 4 8 7 8 10 9 9 10 8 8 8 10 11 12 13 14 15
8 8 8 8 8 8 8 7 8 8 8 8 8 7 8 7 7 6 5 5 5 5 5 5 3 3 3 9 10 9 7 8 8 9 9 8 7 7 8 9 11 12 13
8 8 8 8 9 9 9 9 9 9 9 9 9 8 8 8 8 7 7 6 5 6 5 5 4 3 2 7 9 8 8 6 6 9 9 9 9 8 7 7 8 10 11
8 9 9 9 9 10 10 10 10 10 10 10 9 9 9 8 8 9 8 8 6 6 5 5 5 3 4 6 9 9 7 4 4 5 7 9 11 11 9 8 9 10 11
9 8 9 9 9 9 10 10 10 11 10 10 9 9 9 12 13 10 8 7 7 6 5 5 5 4 5 9 9 6 8 7 4 3 5 4 5 6 7 8 9 11 13
9 9 9 10 10 10 13 15 13 10 9 10 10 10 10 12 14 15 15 14 12 9 8 7 7 7 8 8 7 9 9 8 5 4 4 4 4 5 4 5 9 13 15
9 10 10 10 11 13 17 18 20 13 11 11 11 10 13 13 12 9 11 15 15 16 14 10 9 8 8 9 11 11 11 9 5 8 5 4 3 4 4 7 10 14 16
9 10 11 11 11 14 17 18 20 14 11 12 12 12 12 12 12 9 8 8 9 10 12 10 9 9 8 9 13 13 11 8 6 5 4 4 3 3 4 7 8 12 16
10 10 11 11 12 13 16 17 17 9 10 12 12 12 13 13 15 15 10 9 8 8 10 11 10 10 10 12 12 11 12 12 9 4 3 4 4 3 3 4 7 10 12
11 11 12 11 12 12 15 16 15 7 9 10 9 11 16 15 15 15 11 10 10 8 8 7 6 6 7 10 16 15 15 14 10 5 4 5 5 4 4 2 3 6 9
Wind_Direction
228 230 234 234 230 223 212 209 209 208 209 223 234 240 246 250 251 249 252 253 243 224 213 209 207 204 201 200 200 199 199 198 197 194 191 188 186 186 187 187 187 186 186
220 228 234 239 241 234 223 213 209 211 213 217 231 234 243 252 252 251 254 257 249 235 222 216 212 210 208 206 205 204 204 203 201 199 196 193 191 190 190 191 191 190 190
225 223 236 246 247 244 233 222 219 213 217 222 231 233 238 242 246 247 249 250 249 242 232 224 219 216 213 211 209 208 207 207 205 202 200 198 195 194 194 194 195 195 194
237 224 244 254 256 248 227 221 218 217 223 225 229 232 235 235 239 242 242 242 241 241 238 232 225 220 216 214 213 212 211 210 208 206 204 202 200 198 197 196 197 198 198
41 192 250 263 269 254 241 237 224 215 222 228 233 237 236 237 236 240 235 234 232 234 233 233 230 227 224 222 218 216 214 213 210 208 207 205 203 202 201 199 199 200 201
337 339 266 279 276 263 257 245 237 227 225 225 243 249 242 240 237 234 232 229 226 227 227 228 230 232 232 228 222 219 217 215 212 210 209 207 206 205 204 203 203 203 203
327 321 294 296 284 261 259 251 238 236 236 213 232 272 265 245 236 236 229 223 224 223 222 222 222 224 230 227 224 223 221 219 215 212 210 209 208 207 206 206 206 206 206
326 319 295 279 270 274 287 272 239 234 237 201 195 228 287 294 254 235 224 221 221 215 220 221 218 217 220 220 222 223 222 220 218 214 211 210 210 208 207 207 208 208 208
321 316 298 280 260 239 265 280 258 232 243 235 204 192 214 253 295 286 237 224 213 209 216 213 211 214 216 219 218 220 221 219 218 218 214 210 211 210 208 208 209 209 210
327 326 316 300 266 237 240 267 294 242 235 252 245 226 220 211 237 301 313 261 221 214 212 214 214 210 210 212 213 213 215 215 217 219 217 213 210 210 210 210 211 211 211
332 338 333 330 306 270 248 248 278 302 248 252 246 243 247 238 223 223 283 308 294 238 215 210 208 207 208 208 208 213 213 213 215 216 216 213 211 210 211 213 214 214 213
326 334 338 343 336 319 288 274 268 273 270 279 274 245 225 234 235 219 240 263 271 264 229 210 206 207 203 204 211 214 213 212 212 213 213 211 209 210 212 214 217 217 216
313 316 333 335 335 325 310 296 285 276 268 271 274 267 246 235 226 220 232 257 264 273 265 229 211 201 197 195 205 210 211 208 207 208 208 207 207 208 210 212 215 216 217
279 290 309 318 320 322 322 314 296 281 271 263 266 267 268 262 235 215 217 231 272 285 273 252 223 197 184 181 192 192 196 196 194 194 197 200 203 205 206 209 211 213 215
291 306 309 312 312 314 314 315 300 289 282 266 262 263 262 266 254 232 218 200 209 250 258 253 236 194 168 150 160 156 152 161 164 169 177 187 194 200 203 206 209 212 215
290 301 304 304 304 303 302 304 299 293 289 277 267 263 261 261 259 245 226 218 205 214 246 250 232 199 163 144 137 128 126 128 132 143 157 176 192 199 204 207 210 213 216
272 276 279 284 288 290 291 292 291 293 289 287 283 270 261 258 255 251 234 222 221 208 237 256 241 190 145 143 128 117 116 111 113 124 140 163 185 196 202 207 210 212 213
259 258 260 265 270 275 275 277 281 287 280 279 277 272 266 264 254 246 237 229 225 218 222 245 238 195 157 155 143 133 121 113 108 112 123 138 154 171 186 198 204 208 209
258 257 256 257 260 262 263 264 264 269 268 266 266 264 261 257 255 247 237 232 228 230 217 229 236 209 152 152 141 127 118 111 107 109 105 110 121 132 146 167 182 188 189
261 261 257 254 254 256 256 257 258 261 263 264 262 259 255 247 245 244 239 232 225 225 221 228 234 211 169 159 148 145 138 124 116 104 97 97 102 102 113 132 149 160 163
273 264 261 260 256 256 258 253 249 256 257 261 262 258 255 257 253 244 237 224 217 217 215 220 229 209 178 172 165 156 148 136 108 121 115 94 89 82 80 100 124 140 145
275 270 265 264 263 268 265 259 253 248 245 248 255 257 261 266 263 255 246 231 213 210 211 212 222 214 200 181 165 157 150 151 152 156 126 99 80 78 56 73 119 132 135
280 276 271 267 266 265 262 260 260 253 243 243 244 248 261 262 258 247 246 240 227 217 206 202 214 218 203 187 169 166 168 161 151 156 130 102 75 72 49 71 115 127 129
282 279 276 271 269 270 265 259 258 256 247 243 240 237 239 246 249 240 238 237 225 217 211 205 209 215 211 194 180 173 162 134 106 124 113 113 99 76 54 55 88 119 127
289 282 277 274 271 273 269 265 260 254 248 246 243 238 233 235 237 230 224 226 223 221 214 202 201 210 206 193 174 156 154 152 151 149 118 118 125 100 66 49 62 95 117
288 286 283 278 272 273 272 269 263 250 249 249 244 240 236 230 228 221 215 211 212 207 189 185 187 195 196 187 176 174 168 166 157 153 157 128 136 130 106 66 60 84 101
Height
1528 1527 1527 1527 1527 1526 1526 1526 1526 1527 1527 1527 1529 1530 1531 1532 1534 1535 1536 1538 1540 1541 1543 1545 1548 1550 1552 1553 1556 1558 1560 1562 1564 1567 1569 1571 1573 1576 1578 1580 1583 1585 1587
1525 1524 1524 1523 1523 1522 1522 1521 1521 1521 1521 1522 1523 1523 1524 1525 1527 1528 1530 1531 1534 1536 1538 1540 1542 1544 1547 1549 1551 1554 1556 1558 1561 1564 1566 1568 1571 1573 1576 1578 1581 1583 1585
1522 1521 1520 1519 1519 1518 1517 1516 1516 1516 1516 1516 1516 1517 1517 1518 1520 1521 1523 1525 1527 1529 1531 1534 1536 1538 1541 1544 1546 1549 1552 1554 1557 1560 1563 1565 1568 1571 1573 1576 1578 1581 1583
1519 1518 1517 1516 1515 1514 1513 1512 1512 1511 1511 1511 1510 1510 1511 1512 1513 1515 1516 1518 1520 1523 1525 1527 1530 1532 1535 1538 1541 1543 1546 1550 1553 1556 1559 1561 1564 1567 1570 1573 1576 1578 1581
1517 1515 1514 1513 1512 1510 1509 1508 1508 1507 1507 1506 1506 1505 1506 1506 1507 1508 1509 1511 1513 1515 1517 1520 1523 1525 1528 1531 1534 1537 1540 1544 1547 1551 1554 1557 1560 1563 1566 1569 1572 1575 1578
1514 1513 1511 1510 1508 1507 1505 1505 1504 1503 1503 1503 1502 1501 1501 1501 1501 1502 1503 1505 1507 1509 1511 1513 1516 1518 1521 1524 1527 1530 1534 1538 1541 1545 1549 1552 1555 1558 1562 1565 1568 1571 1574
1511 1510 1508 1507 1505 1503 1502 1501 1500 1499 1499 1499 1499 1498 1497 1497 1496 1496 1497 1499 1501 1503 1505 1507 1509 1511 1514 1517 1520 1523 1527 1531 1535 1539 1543 1547 1550 1554 1557 1561 1564 1567 1570
1508 1506 1505 1503 1502 1500 1499 1497 1496 1495 1495 1496 1496 1496 1494 1494 1492 1492 1493 1494 1496 1498 1499 1501 1502 1505 1507 1510 1513 1517 1520 1524 1528 1532 1537 1541 1545 1549 1552 1556 1559 1562 1566
1504 1502 1501 1500 1498 1497 1496 1494 1493 1492 1492 1492 1493 1494 1493 1491 1490 1489 1489 1489 1491 1492 1494 1495 1497 1499 1502 1505 1508 1511 1515 1518 1522 1526 1531 1535 1539 1544 1547 1551 1554 1558 1561
1499 1498 1497 1495 1494 1493 1493 1491 1490 1489 1488 1488 1489 1490 1490 1490 1490 1487 1486 1486 1487 1488 1489 1491 1493 1495 1497 1500 1504 1507 1511 1514 1517 1521 1525 1529 1533 1538 1541 1545 1549 1552 1556
1495 1494 1492 1491 1490 1489 1489 1488 1488 1486 1485 1485 1485 1485 1486 1486 1487 1486 1485 1484 1484 1485 1486 1487 1489 1491 1493 1497 1500 1503 1507 1510 1513 1516 1520 1523 1527 1531 1535 1539 1543 1547 1550
1492 1490 1489 1487 1486 1485 1485 1484 1484 1483 1482 1482 1481 1481 1481 1482 1483 1483 1483 1482 1482 1483 1483 1484 1485 1487 1490 1492 1496 1499 1503 1506 1509 1512 1515 1518 1522 1526 1530 1533 1537 1541 1545
1487 1485 1484 1482 1482 1481 1480 1480 1479 1479 1479 1478 1478 1477 1477 1478 1479 1480 1480 1479 1479 1480 1480 1481 1482 1484 1486 1489 1492 1496 1499 1502 1505 1508 1511 1514 1517 1521 1524 1528 1532 1535 1539
1482 1480 1479 1478 1477 1476 1475 1475 1474 1474 1474 1474 1474 1473 1473 1473 1474 1475 1476 1476 1476 1476 1476 1477 1479 1480 1483 1485 1488 1492 1495 1498 1501 1504 1507 1510 1513 1516 1519 1523 1526 1530 1534
1477 1476 1474 1473 1472 1471 1470 1469 1468 1468 1468 1468 1468 1469 1469 1469 1469 1470 1471 1472 1474 1473 1473 1474 1475 1477 1480 1482 1485 1488 1491 1494 1497 1500 1503 1506 1509 1512 1515 1518 1521 1525 1529
1474 1472 1470 1468 1466 1465 1464 1463 1462 1462 1462 1462 1462 1463 1463 1464 1464 1465 1466 1467 1469 1470 1470 1471 1472 1474 1476 1479 1481 1484 1487 1490 1493 1496 1499 1502 1505 1507 1510 1514 1517 1520 1523
1470 1468 1465 1463 1462 1460 1459 1457 1456 1455 1455 1455 1455 1456 1457 1458 1459 1460 1461 1462 1463 1465 1466 1467 1468 1470 1473 1475 1478 1481 1483 1486 1489 1491 1494 1497 1500 1503 1506 1510 1513 1516 1519
1465 1463 1461 1459 1457 1455 1453 1452 1450 1449 1448 1448 1448 1449 1450 1451 1452 1454 1455 1456 1458 1460 1461 1462 1464 1466 1468 1471 1474 1477 1480 1482 1485 1487 1490 1492 1495 1499 1502 1505 1508 1512 1515
1460 1458 1456 1453 1451 1450 1448 1446 1444 1443 1441 1441 1441 1441 1442 1444 1445 1447 1449 1451 1452 1454 1456 1457 1459 1462 1464 1467 1470 1473 1476 1479 1481 1483 1485 1488 1491 1494 1498 1501 1504 1508 1511
1454 1452 1449 1447 1445 1443 1441 1439 1437 1436 1435 1434 1433 1433 1434 1436 1438 1440 1442 1444 1446 1448 1450 1452 1454 1457 1460 1462 1465 1468 1472 1475 1477 1480 1482 1484 1487 1490 1493 1497 1500 1504 1507
1447 1445 1442 1440 1438 1436 1433 1431 1430 1428 1427 1426 1426 1426 1426 1427 1429 1432 1435 1437 1440 1442 1444 1446 1448 1452 1455 1457 1460 1464 1468 1471 1474 1477 1479 1481 1484 1486 1489 1493 1497 1500 1503
1440 1437 1435 1432 1430 1428 1426 1424 1422 1421 1419 1419 1418 1418 1418 1419 1421 1423 1427 1430 1433 1435 1438 1440 1442 1445 1449 1452 1455 1459 1463 1467 1471 1474 1476 1479 1482 1485 1488 1491 1494 1498 1501
1432 1429 1427 1424 1422 1420 1418 1416 1414 1412 1411 1409 1409 1409 1409 1410 1412 1415 1418 1422 1425 1428 1431 1434 1436 1439 1443 1447 1450 1454 1458 1463 1467 1470 1474 1477 1481 1484 1488 1490 1493 1496 1499
1425 1422 1419 1417 1414 1412 1410 1407 1405 1403 1401 1400 1399 1399 1400 1401 1403 1406 1410 1413 1416 1420 1424 1427 1430 1434 1438 1442 1445 1450 1454 1460 1465 1469 1472 1475 1479 1483 1487 1490 1492 1495 1498
1419 1415 1412 1409 1407 1404 1401 1398 1396 1393 1391 1390 1389 1389 1390 1391 1394 1398 1401 1404 1408 1412 1417 1421 1424 1427 1431 1435 1440 1444 1449 1455 1460 1465 1469 1473 1477 1480 1485 1488 1491 1494 1497
1413 1409 1406 1403 1400 1396 1393 1390 1387 1384 1381 1380 1380 1380 1381 1383 1385 1389 1392 1396 1400 1405 1410 1414 1418 1421 1424 1429 1433 1438 1443 1449 1454 1460 1464 1469 1474 1478 1483 1487 1490 1493 1496